EW8041 Weather Reports


Display with metric or nautical units.
time (UTC)temp
F
wind
direction
speed
MPH
gust
MPH
rain 1hr
in
rain 24hr
in
rain mn
in
humidity
%
barometer
mb
20260903183531 96 55 1.0 4.0 0.00 0.00 0.00 62 1015.9
20260903182546 97 96 2.0 6.0 0.00 0.00 0.00 62 1016.1
20260903181523 97 73 2.0 6.0 0.00 0.00 0.00 62 1016.1
20260903180518 98 75 2.0 10.0 0.00 0.00 0.00 61 1016.4
20260903175555 98 33 1.0 3.0 0.00 0.00 0.00 62 1016.4
20260903174531 98 52 2.0 7.0 0.00 0.00 0.00 63 1016.5
20260903173527 96 28 1.0 4.0 0.00 0.00 0.00 62 1016.5
20260903172523 97 31 1.0 3.0 0.00 0.00 0.00 64 1016.7
20260903171539 96 31 1.0 2.0 0.00 0.00 0.00 63 1017.0
20260903170535 96 31 1.0 2.0 0.00 0.00 0.00 64 1017.1
20260903165532 95 31 1.0 3.0 0.00 0.00 0.00 66 1017.3
20260903164527 96 31 1.0 2.0 0.00 0.00 0.00 67 1017.4
20260903163523 96 31 1.0 3.0 0.00 0.00 0.00 67 1017.3
20260903162519 95 31 1.0 3.0 0.00 0.00 0.00 71 1017.5
20260903161515 94 31 1.0 2.0 0.00 0.00 0.00 73 1017.5
20260903160532 93 31 1.0 3.0 0.00 0.00 0.00 73 1017.6
20260903155528 93 31 1.0 2.0 0.00 0.00 0.00 73 1017.7
20260903154524 93 31 0.0 1.0 0.00 0.00 0.00 76 1017.8
20260903153520 92 31 0.0 1.0 0.00 0.00 0.00 77 1017.8
20260903152516 91 31 1.0 2.0 0.00 0.00 0.00 77 1017.8
20260903151532 91 31 1.0 2.0 0.00 0.00 0.00 78 1017.6
20260903150528 90 31 1.0 2.0 0.00 0.00 0.00 81 1017.6
20260903145524 89 31 1.0 2.0 0.00 0.00 0.00 82 1017.6
20260903144540 88 31 0.0 1.0 0.00 0.00 0.00 86 1017.6
20260903143516 87 31 0.0 2.0 0.00 0.00 0.00 86 1017.6
20260903142532 87 31 1.0 2.0 0.00 0.00 0.00 87 1017.6
20260903141528 86 31 1.0 4.0 0.00 0.00 0.00 89 1017.6
20260903140524 85 31 1.0 1.0 0.00 0.00 0.00 91 1017.8
20260903135520 84 31 0.0 1.0 0.00 0.00 0.00 91 1017.7
20260903134516 83 31 0.0 1.0 0.00 0.00 0.00 92 1017.6
20260903133532 81 31 0.0 1.0 0.00 0.00 0.00 93 1017.6
20260903132528 80 31 1.0 1.0 0.00 0.00 0.00 93 1017.6
20260903131524 79 31 0.0 1.0 0.00 0.00 0.00 94 1017.6
20260903130520 79 31 0.0 1.0 0.00 0.00 0.00 94 1017.6
20260903125516 78 0.0 0.0 0.00 0.00 0.00 94 1017.7
20260903124552 77 31 0.0 1.0 0.00 0.00 0.00 94 1017.8
20260903123528 76 0.0 0.0 0.00 0.00 0.00 94 1017.7
20260903122524 75 0.0 0.0 0.00 0.00 0.00 94 1017.4
20260903121521 75 0.0 0.0 0.00 0.00 0.00 94 1017.5
20260903120517 75 0.0 0.0 0.00 0.00 0.00 94 1017.4
20260903115532 74 31 0.0 1.0 0.00 0.00 0.00 93 1017.5
20260903114528 74 0.0 0.0 0.00 0.00 0.00 93 1017.4
20260903113544 74 0.0 0.0 0.00 0.00 0.00 93 1017.2
20260903112541 74 0.0 0.0 0.00 0.00 0.00 93 1017.2
20260903111516 75 0.0 0.0 0.00 0.00 0.00 93 1017.0
20260903110533 75 31 0.0 1.0 0.00 0.00 0.00 93 1017.0
20260903105529 75 0.0 0.0 0.00 0.00 0.00 93 1016.9
20260903104525 75 31 0.0 1.0 0.00 0.00 0.00 92 1016.8
20260903103520 75 31 0.0 1.0 0.00 0.00 0.00 92 1016.9
20260903102516 75 0.0 0.0 0.00 0.00 0.00 92 1016.7
20260903101533 75 0.0 0.0 0.00 0.00 0.00 92 1016.8
20260903100528 75 0.0 0.0 0.00 0.00 0.00 91 1016.6
20260903095545 75 0.0 0.0 0.00 0.00 0.00 91 1016.5
20260903094521 75 0.0 0.0 0.00 0.00 0.00 91 1016.5
20260903093537 75 0.0 0.0 0.00 0.00 0.00 91 1016.6
20260903092533 75 0.0 0.0 0.00 0.00 0.00 90 1016.5
20260903091529 75 0.0 0.0 0.00 0.00 0.00 90 1016.5
20260903090525 75 0.0 0.0 0.00 0.00 0.00 90 1016.5
20260903085521 75 0.0 0.0 0.00 0.00 0.00 90 1016.5
20260903084517 76 0.0 0.0 0.00 0.00 0.00 90 1016.3
20260903083533 76 0.0 0.0 0.00 0.00 0.00 90 1016.4
20260903082529 76 0.0 0.0 0.00 0.00 0.00 89 1016.4
20260903081525 76 0.0 0.0 0.00 0.00 0.00 89 1016.4
20260903080521 76 0.0 0.0 0.00 0.00 0.00 89 1016.5
20260903075517 76 0.0 0.0 0.00 0.00 0.00 89 1016.5
20260903074534 76 0.0 0.0 0.00 0.00 0.00 88 1016.4
20260903073549 77 0.0 0.0 0.00 0.00 0.00 88 1016.4
20260903072526 77 0.0 0.0 0.00 0.00 0.00 88 1016.5
20260903071522 77 0.0 0.0 0.00 0.00 0.00 88 1016.6
20260903070518 77 0.0 0.0 0.00 0.00 0.00 87 1016.5
20260903065534 77 0.0 0.0 0.00 0.00 0.00 87 1016.4
20260903064529 78 0.0 0.0 0.00 0.00 0.00 87 1016.6
20260903063525 78 0.0 0.0 0.00 0.00 0.00 86 1016.6
20260903062541 78 0.0 0.0 0.00 0.00 0.00 86 1016.7
20260903061517 78 0.0 0.0 0.00 0.00 0.00 86 1016.7
20260903060533 78 0.0 0.0 0.00 0.00 0.00 85 1016.8
20260903055529 78 31 0.0 1.0 0.00 0.00 0.00 85 1016.8
20260903054544 78 0.0 0.0 0.00 0.00 0.00 84 1016.8
20260903053520 78 31 0.0 1.0 0.00 0.00 0.00 84 1016.6
20260903052517 79 0.0 0.0 0.00 0.00 0.00 84 1016.9
20260903051532 79 0.0 0.0 0.00 0.00 0.00 83 1016.8
20260903050529 79 31 0.0 1.0 0.00 0.00 0.00 83 1016.8
20260903045525 79 31 0.0 1.0 0.00 0.00 0.00 82 1016.8
20260903044520 79 0.0 0.0 0.00 0.00 0.00 82 1016.6
20260903043535 79 0.0 0.0 0.00 0.00 0.00 81 1016.7
20260903042531 79 31 0.0 1.0 0.00 0.00 0.00 81 1016.8
20260903041527 80 31 0.0 1.0 0.00 0.00 0.00 80 1016.6
20260903040523 80 0.0 0.0 0.00 0.00 0.00 80 1016.6
20260903035519 80 0.0 0.0 0.00 0.00 0.00 79 1016.6
20260903034535 80 31 0.0 1.0 0.00 0.00 0.00 79 1016.8
20260903033531 81 0.0 0.0 0.00 0.00 0.00 78 1016.8
20260903032526 81 31 0.0 1.0 0.00 0.00 0.00 78 1016.9
20260903031522 81 0.0 0.0 0.00 0.00 0.00 77 1016.8
20260903030518 81 31 0.0 1.0 0.00 0.00 0.00 76 1016.7
20260903025533 81 31 0.0 1.0 0.00 0.00 0.00 76 1016.8
20260903024549 82 0.0 0.0 0.00 0.00 0.00 75 1016.6
20260903023525 82 0.0 0.0 0.00 0.00 0.00 75 1016.6
20260903022521 82 31 0.0 1.0 0.00 0.00 0.00 74 1016.6
20260903021516 83 31 0.0 1.0 0.00 0.00 0.00 74 1016.6
20260903020532 83 31 0.0 1.0 0.00 0.00 0.00 73 1016.8
20260903015528 83 31 0.0 1.0 0.00 0.00 0.00 72 1016.7
20260903014523 84 0.0 0.0 0.00 0.00 0.00 72 1016.5
20260903013519 84 31 0.0 1.0 0.00 0.00 0.00 71 1016.3
20260903012536 85 31 0.0 1.0 0.00 0.00 0.00 70 1016.4
20260903011531 85 0.0 0.0 0.00 0.00 0.00 69 1016.2
20260903010527 86 31 0.0 1.0 0.00 0.00 0.00 68 1016.1
20260903005523 87 0.0 0.0 0.00 0.00 0.00 67 1016.1
20260903004518 87 31 0.0 1.0 0.00 0.00 0.00 66 1016.0
20260903003535 88 31 1.0 2.0 0.00 0.00 0.00 65 1015.9
20260903002530 89 31 1.0 1.0 0.00 0.00 0.00 64 1016.0
20260903001526 90 31 1.0 1.0 0.00 0.00 0.00 63 1015.9
20260903000522 90 31 0.0 1.0 0.00 0.00 0.00 61 1015.8
20260902235517 91 0.0 0.0 0.00 0.00 0.00 60 1015.8
20260902234552 92 31 0.0 1.0 0.00 0.00 0.00 59 1015.8
20260902233528 93 31 0.0 1.0 0.00 0.00 0.00 58 1015.9
20260902232524 94 31 1.0 1.0 0.00 0.00 0.00 57 1015.9
20260902231540 94 31 1.0 2.0 0.00 0.00 0.00 56 1016.0
20260902230536 95 31 1.0 2.0 0.00 0.00 0.00 56 1015.9
20260902225532 95 31 1.0 1.0 0.00 0.00 0.00 55 1016.1
20260902224528 96 31 1.0 2.0 0.00 0.00 0.00 55 1015.9
20260902223524 96 31 0.0 1.0 0.00 0.00 0.00 55 1015.9
20260902222520 96 31 1.0 2.0 0.00 0.00 0.00 54 1016.0
20260902221515 96 31 1.0 3.0 0.00 0.00 0.00 55 1016.0
20260902220532 96 31 1.0 3.0 0.00 0.00 0.00 54 1016.0
20260902215527 97 32 1.0 2.0 0.00 0.00 0.00 54 1016.1
20260902214523 97 41 1.0 2.0 0.00 0.00 0.00 54 1016.1
20260902213519 97 41 1.0 3.0 0.00 0.00 0.00 53 1016.2
20260902212534 97 49 1.0 3.0 0.00 0.00 0.00 52 1016.2
20260902211531 98 22 3.0 6.0 0.00 0.00 0.00 52 1016.4
20260902210546 99 342 1.0 3.0 0.00 0.00 0.00 52 1016.3
20260902205522 100 342 1.0 2.0 0.00 0.00 0.00 51 1016.5
20260902204518 99 342 1.0 3.0 0.00 0.00 0.00 52 1016.5
20260902203534 99 342 2.0 4.0 0.00 0.00 0.00 50 1016.6
20260902202530 99 29 2.0 4.0 0.00 0.00 0.00 51 1016.6
20260902201527 99 30 1.0 3.0 0.00 0.00 0.00 52 1016.9
20260902200522 99 30 1.0 3.0 0.00 0.00 0.00 53 1016.9
20260902195518 99 30 1.0 3.0 0.00 0.00 0.00 54 1017.0
20260902194554 98 30 1.0 3.0 0.00 0.00 0.00 55 1017.2
20260902193530 97 29 2.0 4.0 0.00 0.00 0.00 57 1017.5
20260902192546 97 29 2.0 3.0 0.00 0.00 0.00 58 1017.5
20260902191522 96 60 1.0 2.0 0.00 0.00 0.00 58 1017.6
20260902190518 96 53 1.0 3.0 0.00 0.00 0.00 60 1017.7
20260902185534 95 68 1.0 4.0 0.00 0.00 0.00 60 1017.9
20260902184530 94 53 1.0 4.0 0.00 0.00 0.00 60 1017.9